Location: Newark
(42.4678°N, 122.8017°W)
Time: 23:20:07
(UTC+00:00)

N. Korean satellite - Pass Details

Date: 03 October 2020
Orbit: 452 x 505 km, 97.2° (Epoch: 29 October)

Event Time Altitude Azimuth Distance (km) Brightness Sun altitude
Rises 12:49:28 0° 30° (NNE) 2,556 10.8 -15.9°
Reaches altitude 10° 12:52:11 10° 52° (NE) 1,658 10.2 -15.4°
Maximum altitude 12:54:28 16° 92° (E) 1,305 9.9 -15.0°
Drops below altitude 10° 12:56:44 10° 133° (SE) 1,628 9.8 -14.5°
Sets 12:59:21 0° 155° (SSE) 2,487 10.4 -14.1°
